Regional Weather Roundup
Issued by NWS

Home | Current Version | Previous Version | Graphics & Text | Print | Product List | Glossary On
Versions: 1 2 3 4 5 6 7 8 9 10 11 12 13 14 15 16 17 18 19 20 21 22 23 24 25 26 27 28 29 30 31 32 33 34 35 36 37 38 39 40 41 42 43 44 45 46 47 48 49 50
000
ASUS43 KMKX 261910
RWRWI

WISCONSIN REGIONAL WEATHER ROUNDUP
NATIONAL WEATHER SERVICE MILWAUKEE/SULLIVAN WI
100 PM CST SUN FEB 26 2017

NOTE: "FAIR" INDICATES FEW OR NO CLOUDS BELOW 12,000 FEET WITH NO
SIGNIFICANT WEATHER AND/OR OBSTRUCTIONS TO VISIBILITY.

WIZ001-002-006>008-014>016-023>028-262000-
NORTHWEST WISCONSIN

CITY           SKY/WX    TMP DP  RH WIND       PRES   REMARKS
SUPERIOR ARPT  SUNNY     25  11  57 NW20      29.78R WCI  10
ASHLAND        LGT SNOW  27  20  75 NW18      29.73R WCI  14
HAYWARD        CLOUDY    33  15  47 W12G26    29.70S WCI  24
SIREN          CLOUDY    32  19  57 N14G21    29.76R WCI  22
CUMBERLAND     CLOUDY    32  19  59 W15G26    29.72F WCI  22
RICE LAKE      PTSUNNY   34  21  60 SW16G23   29.75F WCI  23
CHETEK         CLOUDY    32  23  68 W7G16     29.75S WCI  26
LADYSMITH      CLOUDY    32  22  66 W15       29.74R WCI  22
EAU CLAIRE     MOSUNNY   32  22  66 SW13      29.78S WCI  22
MENOMONIE      MOSUNNY   35  22  60 SW14      29.78S WCI  26
NEW RICHMOND   MOSUNNY   35  19  52 W13G20    29.77S WCI  26
OSCEOLA        CLOUDY    37  20  50 W17G25    29.79S WCI  27
$$

WIZ003>005-009-010-017-018-262000-
NORTH CENTRAL WISCONSIN

CITY           SKY/WX    TMP DP  RH WIND       PRES   REMARKS
MANITOWISH WTR FLURRIES  28  22  78 SW12G23   29.64R WCI  18
ARBOR VITAE    CLOUDY    32  23  69 SW16        N/A  WCI  21
WOODRUFF       CLOUDY    32  23  69 SW16        N/A  WCI  21
RHINELANDER    CLOUDY    32  21  64 SW15G26   29.66F WCI  22
EAGLE RIVER    CLOUDY    29  19  66 W18G24    29.64S WCI  16
LAND O LAKES   FLURRIES  28  21  74 SW9G17    29.65S WCI  20
PHILLIPS       CLOUDY    30  20  67 SW10G18   29.67F WCI  21
TOMAHAWK       MOSUNNY   33  20  59 W10       29.69F WCI  24
MEDFORD        MOSUNNY   31  20  65 SW12G18   29.72S WCI  21
MERRILL        NOT AVBL
$$

WIZ029-030-035-036-043>047-262000-
CENTRAL WISCONSIN

CITY           SKY/WX    TMP DP  RH WIND       PRES   REMARKS
WAUSAU         CLOUDY    32  21  64 SW12      29.73S WCI  23
MOSINEE        PTSUNNY   34  21  60 W17G24    29.75F WCI  23
MARSHFIELD     CLOUDY    33  20  58 W13       29.74F WCI  24
STEVENS POINT  PTSUNNY   34  20  55 SW13G21   29.76S WCI  25
WAUPACA        SUNNY     41  22  47 SW14      29.77F
WAUTOMA        SUNNY     38  22  52 SW14G24   29.79F WCI  30
WISC RAPIDS    SUNNY     38  19  46 W15G23    29.78S WCI  29
CAMP DOUGLAS   MOSUNNY   37  23  56 SW18      29.80S WCI  27
$$

WIZ011>013-019>022-031-037>040-048>050-262000-
NORTHEAST WISCONSIN

CITY           SKY/WX    TMP DP  RH WIND       PRES   REMARKS
ANTIGO         CLOUDY    31  21  67 SW18      29.71S WCI  19
SHAWANO        MOSUNNY   38  22  51 SW15      29.75S WCI  30
OCONTO         SUNNY     35  21  57 SW14G24   29.75F WCI  25
STURGEON BAY   SUNNY     34  22  61 SW18G24   29.76F WCI  23
GREEN BAY      SUNNY     36  24  62 SW13      29.77F WCI  27
MANITOWOC      MOSUNNY   37  22  54 SW14      29.80F WCI  28
APPLETON       MOSUNNY   36  21  55 SW17G23   29.76F WCI  25
CLINTONVILLE   SUNNY     36  21  55 SW12G18   29.76F WCI  27
OSHKOSH        SUNNY     36  23  59 SW12G20   29.79F WCI  28
$$

WIZ032>034-041-042-053>061-262000-
SOUTHWEST WISCONSIN

CITY           SKY/WX    TMP DP  RH WIND       PRES   REMARKS
LA CROSSE      SUNNY     39  25  57 SW13G21   29.83S WCI  31
SPARTA         SUNNY     39  23  53 W12G17    29.82S WCI  31
VIROQUA        SUNNY     37  25  61 SW14      29.82S WCI  28
BOSCOBEL       SUNNY     40  25  55 SW15G21   29.87F WCI  32
PRAIRIE DU CHI SUNNY     39  27  62 SW10G16   29.87F WCI  32
PLATTEVILLE    SUNNY     40  30  67 W17       29.88F WCI  31
$$

WIZ056-057-062-063-064-067-068-262000-
SOUTH CENTRAL WISCONSIN

CITY           SKY/WX    TMP DP  RH WIND       PRES   REMARKS
REEDSBURG      SUNNY     37  25  60 SW10G20   29.83F WCI  30
BARABOO/DELLS  SUNNY     37  24  57 SW15      29.82F WCI  28
LONE ROCK      SUNNY     39  26  59 SW15G21   29.86F WCI  31
MINERAL POINT  SUNNY     39  30  70 SW13G18   29.86F WCI  32
MADISON        MOSUNNY   38  25  59 W13G22    29.86S WCI  30
MIDDLETON      SUNNY     40  29  66 W14G20    29.86S WCI  32
WATERTOWN      SUNNY     39  28  66 SW16G26   29.85F WCI  30
MONROE         SUNNY     41  27  56 W22G33    29.88S
JANESVILLE     MOSUNNY   45  27  49 W20G25    29.89S
$$

WIZ051-052-058>065-066-070>072-262000-
SOUTHEAST WISCONSIN

CITY           SKY/WX    TMP DP  RH WIND       PRES   REMARKS
MILWAUKEE      MOSUNNY   42  22  44 W21G32    29.88R
WAUKESHA       MOSUNNY   37  25  60 SW23G35   29.87S WCI  26
MILWAUKEE/TIMM MOSUNNY   39  23  52 SW24G30   29.87S WCI  28
RACINE         SUNNY     43  23  45 SW24G35   29.90S
KENOSHA        SUNNY     42  25  50 SW26G36   29.88F
FOND DU LAC    SUNNY     36  23  59 SW12G24   29.81F WCI  28
SHEBOYGAN      SUNNY     36  24  62 SW22G29   29.82S WCI  25
WEST BEND      SUNNY     36  27  69 SW14G26   29.83S WCI  27
JUNEAU         SUNNY     35  26  67 SW24      29.86S WCI  23
$$

LSZ147-162-262000-
LAKE SUPERIOR

STATION/POSITION TIME  TEMP    WIND        PRES    WAVE
                       AIR SEA DIR/SP/G            HT/PER
                 (UTC) (F)     (DEG/KT/KT) (MB)    (FT/S)
DEVILS ISLAND    1900   24     300/ 20/ 21 1007.1R
PORT WING        1840   25     300/ 16/ 20 1007.5R
SAXON HARBOR     1900   26     310/ 22     1006.1
$$

LMZ867-665-643>646-262000-
LAKE MICHIGAN

STATION/POSITION TIME  TEMP    WIND        PRES    WAVE
                       AIR SEA DIR/SP/G            HT/PER
                 (UTC) (F)     (DEG/KT/KT) (MB)    (FT/S)
CHAMBERS ISLAND  1840   33     190/  8/ 19 1007.1F
NORTHPORT PIER   1840   34     210/  8/ 21 1007.1F
SISTER BAY       1820   36        CALM       N/A
ALGOMA LAKESHORE 1826          240/ 20/ 29   N/A
KEWAUNEE LAKESHO 1848   35     230/ 11/ 19 1008.3F
SHEBOYGAN LAKESH 1900   36     240/ 22/ 26 1010.5F
PORT WASHINGTON  1830   40     250/ 16/ 24 1011.5S
MILWAUKEE LAKESH 1850   40     250/ 19/ 22   N/A
KENOSHA   LAKESH 1900   41     250/ 21/ 29 1012.9
$$

TC  - TEMPERATURE IN CELSIUS
VSB - VISIBILITY IN STATUTE MILES
WCI - WIND CHILL INDEX
HX  - HEAT INDEX





USA.gov is the U.S. government's official web portal to all federal, state and local government web resources and services.